Back to catalog

STARLINK-31220

AliveCommunicationsVLEO
NORAD 59039·PAYLOAD·🇺🇸 United States

Launched Feb 25, 2024 from Cape Canaveral Space Force Station

Loading…

Next Passes (next 24 hours)

TLE

FreshSource: CelesTrak SupGP

Epoch: Sep 14, 2026, 13:45 UTC

1 59039C 24038S   26257.57340278 -.00054200  00000+0 -19632-2 0  2573
2 59039  43.0010  40.2672 0001376 268.3172 171.5453 15.27603849    15

Track STARLINK-31220 in real time with AllMySat

Download on the App Store